START_TIME,STEP,MOV.,H8,t_acc.,H43,t_acc.,M25,t_acc.,H9,t_acc.
1979-03-11 03:00:27.040 ,6,0,0.,12.0,0.,12.0,0.,12.0,0.,12.0
1979-03-11 03:00:39.040 ,6,0,0.,12.0,0.,12.0,0.,12.0,0.,12.0
1979-03-11 03:00:51.040 ,7,0,0.,12.0,0.,12.0,0.,12.0,0.,12.0
1979-03-11 03:01:03.040 ,7,0,0.,12.0,0.,12.0,0.,12.0,0.,12.0
1979-03-11 03:01:15.040 ,7,0,0.,12.0,0.,12.0,0.,12.0,0.,12.0
1979-03-11 03:01:27.040 ,7,0,0.,12.0,0.,12.0,0.,12.0,0.,12.0
1979-03-11 03:01:39.040 ,6,0,0.,12.0,0.,12.0,0.,12.0,0.,12.0
1979-03-11 03:01:51.040 ,6,0,0.,12.0,0.,12.0,0.,12.0,0.,12.0
1979-03-11 03:02:03.040 ,5,0,0.,12.0,0.,12.0,0.,12.0,0.,12.0
1979-03-11 03:02:15.040 ,5,0,0.,12.0,0.,12.0,0.,12.0,0.,12.0
1979-03-11 03:02:27.040 ,4,0,0.,12.0,0.,12.0,0.,12.0,0.,12.0
1979-03-11 03:02:39.040 ,4,0,0.,12.0,0.,12.0,0.,12.0,0.,12.0
1979-03-11 03:02:51.040 ,3,0,0.,12.0,0.,12.0,0.,12.0,0.,12.0
1979-03-11 03:03:03.040 ,3,0,0.,12.0,0.,12.0,0.,12.0,0.,12.0
1979-03-11 03:03:15.040 ,2,0,0.,12.0,0.,12.0,0.,12.0,0.,12.0
1979-03-11 03:03:27.040 ,2,0,0.,12.0,0.,12.0,0.,12.0,0.,12.0
1979-03-11 03:03:39.040 ,1,0,0.,12.0,0.,12.0,0.,12.0,0.,12.0
1979-03-11 03:03:51.040 ,1,0,0.,12.0,0.,12.0,0.,12.0,0.,12.0
1979-03-11 03:04:03.040 ,0,0,0.,12.0,0.,12.0,0.,12.0,0.,12.0
1979-03-11 03:04:15.040 ,0,0,0.,12.0,0.,12.0,0.,12.0,0.,12.0
1979-03-11 03:04:27.040 ,0,0,0.,12.0,0.,12.0,0.,12.0,0.,12.0
1979-03-11 03:04:39.040 ,0,0,0.,12.0,0.,12.0,0.,12.0,0.,12.0
1979-03-11 03:04:51.040 ,1,0,0.,12.0,0.,12.0,0.,12.0,0.,12.0
1979-03-11 03:05:03.040 ,1,0,0.,12.0,0.,12.0,0.,12.0,0.,12.0
1979-03-11 03:05:15.040 ,2,0,0.,12.0,0.,12.0,0.,12.0,0.,12.0
1979-03-11 03:05:27.040 ,2,0,0.,12.0,0.,12.0,0.,12.0,0.,12.0
1979-03-11 03:05:39.040 ,3,0,0.,12.0,0.,12.0,0.,12.0,0.,12.0
1979-03-11 03:05:51.040 ,3,0,0.,12.0,0.,12.0,0.,12.0,0.,12.0
1979-03-11 03:06:03.040 ,4,0,0.,12.0,0.,12.0,0.,12.0,0.,12.0
1979-03-11 03:06:15.040 ,4,0,0.,12.0,0.,12.0,0.,12.0,0.,12.0
1979-03-11 03:06:27.040 ,5,0,0.,12.0,0.,12.0,0.,12.0,0.,12.0
1979-03-11 03:06:39.040 ,5,0,0.,12.0,0.,12.0,0.,12.0,0.,12.0
1979-03-11 03:06:51.040 ,6,0,0.,12.0,0.,12.0,0.,12.0,0.,12.0
1979-03-11 03:07:03.040 ,6,0,0.,12.0,0.,12.0,0.,12.0,0.,12.0
1979-03-11 03:07:15.040 ,7,0,0.,12.0,0.,12.0,0.,12.0,0.,12.0
1979-03-11 03:07:27.040 ,7,0,0.,12.0,0.,12.0,0.,12.0,0.,12.0
1979-03-11 03:07:39.040 ,7,0,0.,12.0,0.,12.0,0.,12.0,0.,12.0
1979-03-11 03:07:51.040 ,7,0,0.,12.0,0.,12.0,0.,12.0,0.,12.0
1979-03-11 03:08:03.040 ,6,0,0.,12.0,0.,12.0,0.,12.0,0.,12.0
1979-03-11 03:08:15.040 ,6,0,0.,12.0,0.,12.0,0.,12.0,0.,12.0
1979-03-11 03:08:27.040 ,5,0,0.,12.0,0.,12.0,0.,12.0,0.,12.0
1979-03-11 03:08:39.040 ,5,0,0.,12.0,0.,12.0,0.,12.0,0.,12.0
1979-03-11 03:08:51.040 ,4,0,0.,12.0,0.,12.0,0.,12.0,0.,12.0
1979-03-11 03:09:03.040 ,4,0,0.,12.0,0.,12.0,0.,12.0,0.,12.0
1979-03-11 03:09:15.040 ,3,0,0.,12.0,0.,12.0,0.,12.0,0.,12.0
1979-03-11 03:09:27.040 ,3,0,0.,12.0,0.,12.0,0.,12.0,0.,12.0
1979-03-11 03:09:39.040 ,2,0,0.,12.0,0.,12.0,0.,12.0,0.,12.0
1979-03-11 03:09:51.040 ,2,0,0.,12.0,0.,12.0,0.,12.0,0.,12.0
1979-03-11 03:10:03.040 ,1,0,0.,12.0,0.,12.0,0.,12.0,0.,12.0
1979-03-11 03:10:15.040 ,1,0,0.,12.0,0.,12.0,0.,12.0,0.,12.0
1979-03-11 03:10:27.040 ,0,0,0.,12.0,0.,12.0,0.,12.0,0.,12.0
1979-03-11 03:10:39.040 ,0,0,0.,12.0,0.,12.0,0.,12.0,0.,12.0
1979-03-11 03:10:51.040 ,0,0,0.,12.0,0.,12.0,0.,12.0,0.,12.0
1979-03-11 03:11:03.040 ,0,0,0.,12.0,0.,12.0,0.,12.0,0.,12.0
1979-03-11 03:11:15.040 ,1,0,0.,12.0,0.,12.0,0.,12.0,0.,12.0
1979-03-11 03:11:27.040 ,1,0,0.,12.0,0.,12.0,0.,12.0,0.,12.0
1979-03-11 03:11:39.040 ,2,0,0.,12.0,0.,12.0,0.,12.0,0.,12.0
1979-03-11 03:11:51.040 ,2,0,0.,12.0,0.,12.0,0.,12.0,0.,12.0
1979-03-11 03:12:03.040 ,3,0,0.,12.0,0.,12.0,0.,12.0,0.,12.0
1979-03-11 03:12:15.040 ,3,0,0.,12.0,0.,12.0,0.,12.0,0.,12.0
1979-03-11 03:12:27.040 ,4,0,0.,12.0,0.,12.0,0.,12.0,0.,12.0
1979-03-11 03:12:39.040 ,4,0,0.,12.0,0.,12.0,0.,12.0,0.,12.0
1979-03-11 03:12:51.040 ,5,0,0.,12.0,0.,12.0,0.,12.0,0.,12.0
1979-03-11 03:13:03.040 ,5,0,0.,12.0,0.,12.0,0.,12.0,0.,12.0
1979-03-11 03:13:15.040 ,6,0,0.,12.0,0.,12.0,0.,12.0,0.,12.0
1979-03-11 03:13:27.040 ,6,0,0.,12.0,0.,12.0,0.,12.0,0.,12.0
1979-03-11 03:13:39.040 ,7,0,0.,12.0,0.,12.0,0.,12.0,0.,12.0
1979-03-11 03:13:51.040 ,7,0,0.,12.0,0.,12.0,0.,12.0,0.,12.0
1979-03-11 03:14:03.040 ,7,0,0.,12.0,0.,12.0,0.,12.0,0.,12.0
1979-03-11 03:14:15.040 ,7,0,0.,12.0,0.,12.0,0.,12.0,0.,12.0
1979-03-11 03:14:27.040 ,6,0,0.,12.0,0.,12.0,0.,12.0,0.,12.0
1979-03-11 03:14:39.040 ,6,0,0.,12.0,0.,12.0,0.,12.0,0.,12.0
1979-03-11 03:14:51.040 ,5,0,0.,12.0,0.,12.0,0.,12.0,0.,12.0
1979-03-11 03:15:03.040 ,5,0,0.,12.0,0.,12.0,0.,12.0,0.,12.0
1979-03-11 03:15:15.040 ,4,0,0.,12.0,0.,12.0,0.,12.0,0.,12.0
1979-03-11 03:15:27.040 ,4,0,0.,12.0,0.,12.0,0.,12.0,0.,12.0
1979-03-11 03:15:39.040 ,3,0,0.,12.0,0.,12.0,0.,12.0,0.,12.0
1979-03-11 03:15:51.040 ,3,0,0.,12.0,0.,12.0,0.,12.0,0.,12.0
1979-03-11 03:16:03.040 ,2,0,0.,12.0,0.,12.0,0.,12.0,0.,12.0
1979-03-11 03:16:15.040 ,2,0,0.,12.0,0.,12.0,0.,12.0,0.,12.0
1979-03-11 03:16:27.040 ,1,0,0.,12.0,0.,12.0,0.,12.0,0.,12.0
1979-03-11 03:16:39.040 ,1,0,0.,12.0,0.,12.0,0.,12.0,0.,12.0
1979-03-11 03:16:51.040 ,0,0,0.,12.0,0.,12.0,0.,12.0,0.,12.0
1979-03-11 03:17:03.040 ,0,0,0.,12.0,0.,12.0,0.,12.0,0.,12.0
1979-03-11 03:17:15.040 ,0,0,0.,12.0,0.,12.0,0.,12.0,0.,12.0
1979-03-11 03:17:27.040 ,0,0,0.,12.0,0.,12.0,0.,12.0,0.,12.0
1979-03-11 03:17:39.040 ,1,0,0.,12.0,0.,12.0,0.,12.0,0.,12.0
1979-03-11 03:17:51.040 ,1,0,0.,12.0,0.,12.0,0.,12.0,0.,12.0
1979-03-11 03:18:03.040 ,2,0,0.,12.0,0.,12.0,0.,12.0,0.,12.0
1979-03-11 03:18:15.040 ,2,0,0.,12.0,0.,12.0,0.,12.0,0.,12.0
1979-03-11 03:18:27.040 ,3,0,0.,12.0,0.,12.0,0.,12.0,0.,12.0
1979-03-11 03:18:39.040 ,3,0,0.,12.0,0.,12.0,0.,12.0,0.,12.0
1979-03-11 03:18:51.040 ,4,0,0.,12.0,0.,12.0,0.,12.0,0.,12.0
1979-03-11 03:19:03.040 ,4,0,0.,12.0,0.,12.0,0.,12.0,0.,12.0
1979-03-11 03:19:15.040 ,5,0,0.,12.0,0.,12.0,0.,12.0,0.,12.0
1979-03-11 03:19:27.040 ,5,0,0.,12.0,0.,12.0,0.,12.0,0.,12.0
1979-03-11 03:19:39.040 ,6,0,0.,12.0,0.,12.0,0.,12.0,0.,12.0
1979-03-11 03:19:51.040 ,6,0,0.,12.0,0.,12.0,0.,12.0,0.,12.0
1979-03-11 03:20:03.040 ,7,0,0.,12.0,0.,12.0,0.,12.0,0.,12.0
1979-03-11 03:20:15.040 ,7,0,0.,12.0,0.,12.0,0.,12.0,0.,12.0
1979-03-11 03:20:27.040 ,7,0,0.,12.0,0.,12.0,0.,12.0,0.,12.0
1979-03-11 03:20:39.040 ,7,0,0.,12.0,0.,12.0,0.,12.0,0.,12.0
1979-03-11 03:20:51.040 ,6,0,0.,12.0,0.,12.0,0.,12.0,0.,12.0
1979-03-11 03:21:03.040 ,6,0,0.,12.0,0.,12.0,0.,12.0,0.,12.0
1979-03-11 03:21:15.040 ,5,0,0.,12.0,0.,12.0,0.,12.0,0.,12.0
1979-03-11 03:21:27.040 ,5,0,0.,12.0,0.,12.0,0.,12.0,0.,12.0
1979-03-11 03:21:39.040 ,4,0,0.,12.0,0.,12.0,0.,12.0,0.,12.0
1979-03-11 03:21:51.040 ,4,0,0.,12.0,0.,12.0,0.,12.0,0.,12.0
1979-03-11 03:22:03.040 ,3,0,0.,12.0,0.,12.0,0.,12.0,0.,12.0
1979-03-11 03:22:15.040 ,3,0,0.,12.0,0.,12.0,0.,12.0,0.,12.0
1979-03-11 03:22:27.040 ,2,0,0.,12.0,0.,12.0,0.,12.0,0.,12.0
1979-03-11 03:22:39.040 ,2,0,0.,12.0,0.,12.0,0.,12.0,0.,12.0
1979-03-11 03:22:51.040 ,1,0,0.,12.0,0.,12.0,0.,12.0,0.,12.0
1979-03-11 03:23:03.040 ,1,0,0.,12.0,0.,12.0,0.,12.0,0.,12.0
1979-03-11 03:23:15.040 ,0,0,0.,12.0,0.,12.0,0.,12.0,0.,12.0
1979-03-11 03:23:27.040 ,0,0,0.,12.0,0.,12.0,0.,12.0,0.,12.0
1979-03-11 03:23:39.040 ,0,0,0.,12.0,0.,12.0,0.,12.0,0.,12.0
1979-03-11 03:23:51.040 ,0,0,0.,12.0,0.,12.0,0.,12.0,0.,12.0
1979-03-11 03:24:03.040 ,1,0,0.,12.0,0.,12.0,0.,12.0,0.,12.0
1979-03-11 03:24:15.040 ,1,0,0.,12.0,0.,12.0,0.,12.0,0.,12.0
1979-03-11 03:24:27.040 ,2,0,0.,12.0,0.,12.0,0.,12.0,0.,12.0
1979-03-11 03:24:39.040 ,2,0,0.,12.0,0.,12.0,0.,12.0,0.,12.0
1979-03-11 03:24:51.040 ,3,0,0.,12.0,0.,12.0,0.,12.0,0.,12.0
1979-03-11 03:25:03.040 ,3,0,0.,12.0,0.,12.0,0.,12.0,0.,12.0
1979-03-11 03:25:15.040 ,4,0,0.,12.0,0.,12.0,0.,12.0,0.,12.0
1979-03-11 03:25:27.040 ,4,0,0.,12.0,0.,12.0,0.,12.0,0.,12.0
1979-03-11 03:25:39.040 ,5,0,0.,12.0,0.,12.0,0.,12.0,0.,12.0
1979-03-11 03:25:51.040 ,5,0,0.,12.0,0.,12.0,0.,12.0,0.,12.0
1979-03-11 03:26:03.040 ,6,0,0.,12.0,0.,12.0,0.,12.0,0.,12.0
1979-03-11 03:26:15.040 ,6,0,0.,12.0,0.,12.0,0.,12.0,0.,12.0
1979-03-11 03:26:27.040 ,7,0,0.,12.0,0.,12.0,0.,12.0,0.,12.0
1979-03-11 03:26:39.040 ,7,0,0.,12.0,0.,12.0,0.,12.0,0.,12.0
1979-03-11 03:26:51.040 ,7,0,0.,12.0,0.,12.0,0.,12.0,0.,12.0
1979-03-11 03:27:03.040 ,7,0,0.,12.0,0.,12.0,0.,12.0,0.,12.0
1979-03-11 03:27:15.040 ,6,0,0.,12.0,0.,12.0,0.,12.0,0.,12.0
1979-03-11 03:27:27.040 ,6,0,0.,12.0,0.,12.0,0.,12.0,0.,12.0
1979-03-11 03:27:39.040 ,5,0,0.,12.0,0.,12.0,0.,12.0,0.,12.0
1979-03-11 03:27:51.040 ,5,0,0.,12.0,0.,12.0,0.,12.0,0.,12.0
1979-03-11 03:28:03.040 ,4,0,0.,12.0,0.,12.0,0.,12.0,0.,12.0
1979-03-11 03:28:15.040 ,4,0,0.,12.0,0.,12.0,0.,12.0,0.,12.0
1979-03-11 03:28:27.040 ,3,0,0.,12.0,0.,12.0,0.,12.0,0.,12.0
1979-03-11 03:28:39.040 ,3,0,0.,12.0,0.,12.0,0.,12.0,0.,12.0
1979-03-11 03:28:51.040 ,2,0,0.,12.0,0.,12.0,0.,12.0,0.,12.0
1979-03-11 03:29:03.040 ,2,0,0.,12.0,0.,12.0,0.,12.0,0.,12.0
1979-03-11 03:29:15.040 ,1,0,0.,12.0,0.,12.0,0.,12.0,0.,12.0
1979-03-11 03:29:27.040 ,1,0,0.,12.0,0.,12.0,0.,12.0,0.,12.0
1979-03-11 03:29:39.040 ,0,0,0.,12.0,0.,12.0,0.,12.0,0.,12.0
1979-03-11 03:29:51.040 ,0,0,0.,12.0,0.,12.0,0.,12.0,0.,12.0
1979-03-11 03:30:03.040 ,0,0,0.,12.0,0.,12.0,0.,12.0,0.,12.0
1979-03-11 03:30:15.040 ,0,0,0.,12.0,0.,12.0,0.,12.0,0.,12.0
1979-03-11 03:30:27.040 ,1,0,0.,12.0,0.,12.0,0.,12.0,0.,12.0
1979-03-11 03:30:39.040 ,1,0,0.,12.0,0.,12.0,0.,12.0,0.,12.0
1979-03-11 03:30:51.040 ,2,0,0.,12.0,0.,12.0,0.,12.0,0.,12.0
1979-03-11 03:31:03.040 ,2,0,0.,12.0,0.,12.0,0.,12.0,0.,12.0
1979-03-11 03:31:15.040 ,3,0,0.,12.0,0.,12.0,0.,12.0,0.,12.0
1979-03-11 03:31:27.040 ,3,0,0.,12.0,0.,12.0,0.,12.0,0.,12.0
1979-03-11 03:31:39.040 ,4,0,0.,12.0,0.,12.0,0.,12.0,0.,12.0
1979-03-11 03:31:51.040 ,4,0,0.,12.0,0.,12.0,0.,12.0,0.,12.0
1979-03-11 03:32:03.040 ,5,0,0.,12.0,0.,12.0,0.,12.0,0.,12.0
1979-03-11 03:32:15.040 ,5,0,0.,12.0,0.,12.0,0.,12.0,0.,12.0
1979-03-11 03:32:27.040 ,6,0,0.,12.0,0.,12.0,0.,12.0,0.,12.0
1979-03-11 03:32:39.040 ,6,0,0.,12.0,0.,12.0,0.,12.0,0.,12.0
1979-03-11 03:32:51.040 ,7,0,0.,12.0,0.,12.0,0.,12.0,0.,12.0
1979-03-11 03:33:03.040 ,7,0,0.,12.0,0.,12.0,0.,12.0,0.,12.0
1979-03-11 03:33:15.040 ,7,0,0.,12.0,0.,12.0,0.,12.0,0.,12.0
1979-03-11 03:33:27.040 ,7,0,0.,12.0,0.,12.0,0.,12.0,0.,12.0
1979-03-11 03:33:39.040 ,6,0,0.,12.0,0.,12.0,0.,12.0,0.,12.0
1979-03-11 03:33:51.040 ,6,0,0.,12.0,0.,12.0,0.,12.0,0.,12.0
1979-03-11 03:34:03.040 ,5,0,0.,12.0,0.,12.0,0.,12.0,0.,12.0
1979-03-11 03:34:15.040 ,5,0,0.,12.0,0.,12.0,0.,12.0,0.,12.0
1979-03-11 03:34:27.040 ,4,0,0.,12.0,0.,12.0,0.,12.0,0.,12.0
1979-03-11 03:34:39.040 ,4,0,0.,12.0,0.,12.0,0.,12.0,0.,12.0
1979-03-11 03:34:51.040 ,3,0,0.,12.0,0.,12.0,0.,12.0,0.,12.0
1979-03-11 03:35:03.040 ,3,0,0.,12.0,0.,12.0,0.,12.0,0.,12.0
1979-03-11 03:35:15.040 ,2,0,0.,12.0,0.,12.0,0.,12.0,0.,12.0
1979-03-11 03:35:27.040 ,2,0,0.,12.0,0.,12.0,0.,12.0,0.,12.0
1979-03-11 03:35:39.040 ,1,0,0.,12.0,0.,12.0,0.,12.0,0.,12.0
1979-03-11 03:35:51.040 ,1,0,0.,12.0,0.,12.0,0.,12.0,0.,12.0
1979-03-11 03:36:03.040 ,0,0,0.,12.0,0.,12.0,0.,12.0,0.,12.0
1979-03-11 03:36:15.040 ,0,0,0.,12.0,0.,12.0,0.,12.0,0.,12.0
1979-03-11 03:36:27.040 ,0,0,0.,12.0,0.,12.0,0.,12.0,0.,12.0
1979-03-11 03:36:39.040 ,0,0,0.,12.0,0.,12.0,0.,12.0,0.,12.0
1979-03-11 03:36:51.040 ,1,0,0.,12.0,0.,12.0,0.,12.0,0.,12.0
1979-03-11 03:37:03.040 ,1,0,0.,12.0,0.,12.0,0.,12.0,0.,12.0
1979-03-11 03:37:15.040 ,2,0,0.,12.0,0.,12.0,0.,12.0,0.,12.0
1979-03-11 03:37:27.040 ,2,0,0.,12.0,0.,12.0,0.,12.0,0.,12.0
1979-03-11 03:37:39.040 ,3,0,0.,12.0,0.,12.0,0.,12.0,0.,12.0
1979-03-11 03:37:51.040 ,3,0,0.,12.0,0.,12.0,0.,12.0,0.,12.0
1979-03-11 03:38:03.040 ,4,0,0.,12.0,0.,12.0,0.,12.0,0.,12.0
1979-03-11 03:38:15.040 ,4,0,0.,12.0,0.,12.0,0.,12.0,0.,12.0
1979-03-11 03:38:27.040 ,5,0,0.,12.0,0.,12.0,0.,12.0,0.,12.0
1979-03-11 03:38:39.040 ,5,0,0.,12.0,0.,12.0,0.,12.0,0.,12.0
1979-03-11 03:38:51.040 ,6,0,0.,12.0,0.,12.0,0.,12.0,0.,12.0
1979-03-11 03:39:03.040 ,6,0,0.,12.0,0.,12.0,0.,12.0,0.,12.0
1979-03-11 03:39:15.040 ,7,0,0.,12.0,0.,12.0,0.,12.0,0.,12.0
1979-03-11 03:39:27.040 ,7,0,0.,12.0,0.,12.0,0.,12.0,0.,12.0
1979-03-11 03:39:39.040 ,7,0,0.,12.0,0.,12.0,0.,12.0,0.,12.0
1979-03-11 03:39:51.040 ,7,0,0.,12.0,0.,12.0,0.,12.0,0.,12.0
1979-03-11 03:40:03.040 ,6,0,0.,12.0,0.,12.0,0.,12.0,0.,12.0
1979-03-11 03:40:15.040 ,6,0,0.,12.0,0.,12.0,0.,12.0,0.,12.0
1979-03-11 03:40:27.040 ,5,0,0.,12.0,0.,12.0,0.,12.0,0.,12.0
1979-03-11 03:40:39.040 ,5,0,0.,12.0,0.,12.0,0.,12.0,0.,12.0
1979-03-11 03:40:51.040 ,4,0,0.,12.0,0.,12.0,0.,12.0,0.,12.0
1979-03-11 03:41:03.040 ,4,0,0.,12.0,0.,12.0,0.,12.0,0.,12.0
1979-03-11 03:41:15.040 ,3,0,0.,12.0,0.,12.0,0.,12.0,0.,12.0
1979-03-11 03:41:27.040 ,3,0,0.,12.0,0.,12.0,0.,12.0,0.,12.0
1979-03-11 03:41:39.040 ,2,0,0.,12.0,0.,12.0,0.,12.0,0.,12.0
1979-03-11 03:41:51.040 ,2,0,0.,12.0,0.,12.0,0.,12.0,0.,12.0
1979-03-11 03:42:03.040 ,1,0,0.,12.0,0.,12.0,0.,12.0,0.,12.0
1979-03-11 03:42:15.040 ,1,0,0.,12.0,0.,12.0,0.,12.0,0.,12.0
1979-03-11 03:42:27.040 ,0,0,0.,12.0,0.,12.0,0.,12.0,0.,12.0
1979-03-11 03:42:39.040 ,0,0,0.,12.0,0.,12.0,0.,12.0,0.,12.0
1979-03-11 03:42:51.040 ,0,0,0.,12.0,0.,12.0,0.,12.0,0.,12.0
1979-03-11 03:43:03.040 ,0,0,0.,12.0,0.,12.0,0.,12.0,0.,12.0
1979-03-11 03:43:15.040 ,1,0,0.,12.0,0.,12.0,0.,12.0,0.,12.0
1979-03-11 03:43:27.040 ,1,0,0.,12.0,0.,12.0,0.,12.0,0.,12.0
1979-03-11 03:43:39.040 ,2,0,0.,12.0,0.,12.0,0.,12.0,0.,12.0
1979-03-11 03:43:51.040 ,2,0,0.,12.0,0.,12.0,0.,12.0,0.,12.0
1979-03-11 03:44:03.040 ,3,0,0.,12.0,0.,12.0,0.,12.0,0.,12.0
1979-03-11 03:44:15.040 ,3,0,0.,12.0,0.,12.0,0.,12.0,0.,12.0
1979-03-11 03:44:27.040 ,4,0,0.,12.0,0.,12.0,0.,12.0,0.,12.0
1979-03-11 03:44:39.040 ,4,0,0.,12.0,0.,12.0,0.,12.0,0.,12.0
1979-03-11 03:44:51.040 ,5,0,0.,12.0,0.,12.0,0.,12.0,0.,12.0
1979-03-11 03:45:03.040 ,5,0,0.,12.0,0.,12.0,0.,12.0,0.,12.0
1979-03-11 03:45:15.040 ,6,0,0.,12.0,0.,12.0,0.,12.0,0.,12.0
1979-03-11 03:45:27.040 ,6,0,0.,12.0,0.,12.0,0.,12.0,0.,12.0
1979-03-11 03:45:39.040 ,7,0,0.,12.0,0.,12.0,0.,12.0,0.,12.0
1979-03-11 03:45:51.040 ,7,0,0.,12.0,0.,12.0,0.,12.0,0.,12.0
1979-03-11 03:46:03.040 ,7,0,0.,12.0,0.,12.0,0.,12.0,0.,12.0
1979-03-11 03:46:15.040 ,7,0,0.,12.0,0.,12.0,0.,12.0,0.,12.0
1979-03-11 03:46:27.040 ,6,0,0.,12.0,0.,12.0,0.,12.0,0.,12.0
1979-03-11 03:46:39.040 ,6,0,0.,12.0,0.,12.0,0.,12.0,0.,12.0
1979-03-11 03:46:51.040 ,5,0,0.,12.0,0.,12.0,0.,12.0,0.,12.0
1979-03-11 03:47:03.040 ,5,0,0.,12.0,0.,12.0,0.,12.0,0.,12.0
1979-03-11 03:47:15.040 ,4,0,0.,12.0,0.,12.0,0.,12.0,0.,12.0
1979-03-11 03:47:27.040 ,4,0,0.,12.0,0.,12.0,0.,12.0,0.,12.0
1979-03-11 03:47:39.040 ,3,0,0.,12.0,0.,12.0,0.,12.0,0.,12.0
1979-03-11 03:47:51.040 ,3,0,0.,12.0,0.,12.0,0.,12.0,0.,12.0
1979-03-11 03:48:03.040 ,2,0,0.,12.0,0.,12.0,0.,12.0,0.,12.0
1979-03-11 03:48:15.040 ,2,0,0.,12.0,0.,12.0,0.,12.0,0.,12.0
1979-03-11 03:48:27.040 ,1,0,0.,12.0,0.,12.0,0.,12.0,0.,12.0
1979-03-11 03:48:39.040 ,1,0,0.,12.0,0.,12.0,0.,12.0,0.,12.0
1979-03-11 03:48:51.040 ,0,0,0.,12.0,0.,12.0,0.,12.0,0.,12.0
1979-03-11 03:49:03.040 ,0,0,0.,12.0,0.,12.0,0.,12.0,0.,12.0
1979-03-11 03:49:15.040 ,0,0,0.,12.0,0.,12.0,0.,12.0,0.,12.0
1979-03-11 03:49:27.040 ,0,0,0.,12.0,0.,12.0,0.,12.0,0.,12.0
1979-03-11 03:49:39.040 ,1,0,0.,12.0,0.,12.0,0.,12.0,0.,12.0
1979-03-11 03:49:51.040 ,1,0,0.,12.0,0.,12.0,0.,12.0,0.,12.0
1979-03-11 03:50:03.040 ,2,0,0.,12.0,0.,12.0,0.,12.0,0.,12.0
1979-03-11 03:50:15.040 ,2,0,0.,12.0,0.,12.0,0.,12.0,0.,12.0
1979-03-11 03:50:27.040 ,3,0,0.,12.0,0.,12.0,0.,12.0,0.,12.0
1979-03-11 03:50:39.040 ,3,0,0.,12.0,0.,12.0,0.,12.0,0.,12.0
1979-03-11 03:50:51.040 ,4,0,0.,12.0,0.,12.0,0.,12.0,0.,12.0
1979-03-11 03:51:03.040 ,4,0,0.,12.0,0.,12.0,0.,12.0,0.,12.0
1979-03-11 03:51:15.040 ,5,0,0.,12.0,0.,12.0,0.,12.0,0.,12.0
1979-03-11 03:51:27.040 ,5,0,0.,12.0,0.,12.0,0.,12.0,0.,12.0
1979-03-11 03:51:39.040 ,6,0,0.,12.0,0.,12.0,0.,12.0,0.,12.0
1979-03-11 03:51:51.040 ,6,0,0.,12.0,0.,12.0,0.,12.0,0.,12.0
1979-03-11 03:52:03.040 ,7,0,0.,12.0,0.,12.0,0.,12.0,0.,12.0
1979-03-11 03:52:15.040 ,7,0,0.,12.0,0.,12.0,0.,12.0,0.,12.0
1979-03-11 03:52:27.040 ,7,0,0.,12.0,0.,12.0,0.,12.0,0.,12.0
1979-03-11 03:52:39.040 ,7,0,0.,12.0,0.,12.0,0.,12.0,0.,12.0
1979-03-11 03:52:51.040 ,6,0,0.,12.0,0.,12.0,0.,12.0,0.,12.0
1979-03-11 03:53:03.040 ,6,0,0.,12.0,0.,12.0,0.,12.0,0.,12.0
1979-03-11 03:53:15.040 ,5,0,0.,12.0,0.,12.0,0.,12.0,0.,12.0
1979-03-11 03:53:27.040 ,5,0,0.,12.0,0.,12.0,0.,12.0,0.,12.0
1979-03-11 03:53:39.040 ,4,0,0.,12.0,0.,12.0,0.,12.0,0.,12.0
1979-03-11 03:53:51.040 ,4,0,0.,12.0,0.,12.0,0.,12.0,0.,12.0
1979-03-11 03:54:03.040 ,3,0,0.,12.0,0.,12.0,0.,12.0,0.,12.0
1979-03-11 03:54:15.040 ,3,0,0.,12.0,0.,12.0,0.,12.0,0.,12.0
1979-03-11 03:54:27.040 ,2,0,0.,12.0,0.,12.0,0.,12.0,0.,12.0
1979-03-11 03:54:39.040 ,2,0,0.,12.0,0.,12.0,0.,12.0,0.,12.0
1979-03-11 03:54:51.040 ,1,0,0.,12.0,0.,12.0,0.,12.0,0.,12.0
1979-03-11 03:55:03.040 ,1,0,0.,12.0,0.,12.0,0.,12.0,0.,12.0
1979-03-11 03:55:15.040 ,0,0,0.,12.0,0.,12.0,0.,12.0,0.,12.0
1979-03-11 03:55:27.040 ,0,0,0.,12.0,0.,12.0,0.,12.0,0.,12.0
1979-03-11 03:55:39.040 ,0,0,0.,12.0,0.,12.0,0.,12.0,0.,12.0
1979-03-11 03:55:51.040 ,0,0,0.,12.0,0.,12.0,0.,12.0,0.,12.0
1979-03-11 03:56:03.040 ,1,0,0.,12.0,0.,12.0,0.,12.0,0.,12.0
1979-03-11 03:56:15.040 ,1,0,0.,12.0,0.,12.0,0.,12.0,0.,12.0
1979-03-11 03:56:27.040 ,2,0,0.,12.0,0.,12.0,0.,12.0,0.,12.0
1979-03-11 03:56:39.040 ,2,0,0.,12.0,0.,12.0,0.,12.0,0.,12.0
1979-03-11 03:56:51.040 ,3,0,0.,12.0,0.,12.0,0.,12.0,0.,12.0
1979-03-11 03:57:03.040 ,3,0,0.,12.0,0.,12.0,0.,12.0,0.,12.0
1979-03-11 03:57:15.040 ,4,0,0.,12.0,0.,12.0,0.,12.0,0.,12.0
1979-03-11 03:57:27.040 ,4,0,0.,12.0,0.,12.0,0.,12.0,0.,12.0
1979-03-11 03:57:39.040 ,5,0,0.,12.0,0.,12.0,0.,12.0,0.,12.0
1979-03-11 03:57:51.040 ,5,0,0.,12.0,0.,12.0,0.,12.0,0.,12.0
1979-03-11 03:58:03.040 ,6,0,0.,12.0,0.,12.0,0.,12.0,0.,12.0
1979-03-11 03:58:15.040 ,6,0,0.,12.0,0.,12.0,0.,12.0,0.,12.0
1979-03-11 03:58:27.040 ,7,0,0.,12.0,0.,12.0,0.,12.0,0.,12.0
1979-03-11 03:58:39.040 ,7,0,0.,12.0,0.,12.0,0.,12.0,0.,12.0
1979-03-11 03:58:51.040 ,7,0,0.,12.0,0.,12.0,0.,12.0,0.,12.0
1979-03-11 03:59:03.040 ,7,0,0.,12.0,0.,12.0,0.,12.0,0.,12.0
1979-03-11 03:59:15.040 ,6,0,0.,12.0,0.,12.0,0.,12.0,0.,12.0
1979-03-11 03:59:27.040 ,6,0,0.,12.0,0.,12.0,0.,12.0,0.,12.0
1979-03-11 03:59:39.040 ,5,0,0.,12.0,0.,12.0,0.,12.0,0.,12.0
1979-03-11 03:59:51.040 ,5,0,0.,12.0,0.,12.0,0.,12.0,0.,12.0
1979-03-11 04:00:03.040 ,4,0,0.,12.0,0.,12.0,0.,12.0,0.,12.0
1979-03-11 04:00:15.040 ,4,0,0.,12.0,0.,12.0,0.,12.0,0.,12.0
1979-03-11 04:00:27.040 ,3,0,0.,12.0,0.,12.0,0.,12.0,0.,12.0
1979-03-11 04:00:39.040 ,3,0,0.,12.0,0.,12.0,0.,12.0,0.,12.0
1979-03-11 04:00:51.040 ,2,0,0.,12.0,0.,12.0,0.,12.0,0.,12.0
1979-03-11 04:01:03.040 ,2,0,0.,12.0,0.,12.0,0.,12.0,0.,12.0
1979-03-11 04:01:15.040 ,1,0,0.,12.0,0.,12.0,0.,12.0,0.,12.0
1979-03-11 04:01:27.040 ,1,0,0.,12.0,0.,12.0,0.,12.0,0.,12.0
1979-03-11 04:01:39.040 ,0,0,0.,12.0,0.,12.0,0.,12.0,0.,12.0
1979-03-11 04:01:51.040 ,0,0,0.,12.0,0.,12.0,0.,12.0,0.,12.0
1979-03-11 04:02:03.040 ,0,0,0.,12.0,0.,12.0,0.,12.0,0.,12.0
1979-03-11 04:02:15.040 ,0,0,0.,12.0,0.,12.0,0.,12.0,0.,12.0
1979-03-11 04:02:27.040 ,1,0,0.,12.0,0.,12.0,0.,12.0,0.,12.0
1979-03-11 04:02:39.040 ,1,0,0.,12.0,0.,12.0,0.,12.0,0.,12.0
1979-03-11 04:02:51.040 ,2,0,0.,12.0,0.,12.0,0.,12.0,0.,12.0
1979-03-11 04:03:03.040 ,2,0,0.,12.0,0.,12.0,0.,12.0,0.,12.0
1979-03-11 04:03:15.040 ,3,0,0.,12.0,0.,12.0,0.,12.0,0.,12.0
1979-03-11 04:03:27.040 ,3,0,0.,12.0,0.,12.0,0.,12.0,0.,12.0
1979-03-11 04:03:39.040 ,4,0,0.,12.0,0.,12.0,0.,12.0,0.,12.0
1979-03-11 04:03:51.040 ,4,0,0.,12.0,0.,12.0,0.,12.0,0.,12.0
1979-03-11 04:04:03.040 ,5,0,0.,12.0,0.,12.0,0.,12.0,0.,12.0
1979-03-11 04:04:15.040 ,5,0,0.,12.0,0.,12.0,0.,12.0,0.,12.0
1979-03-11 04:04:27.040 ,6,0,0.,12.0,0.,12.0,0.,12.0,0.,12.0
1979-03-11 04:04:39.040 ,6,0,0.,12.0,0.,12.0,0.,12.0,0.,12.0
1979-03-11 04:04:51.040 ,7,0,0.,12.0,0.,12.0,0.,12.0,0.,12.0
1979-03-11 04:05:03.040 ,7,0,0.,12.0,0.,12.0,0.,12.0,0.,12.0
1979-03-11 04:05:15.040 ,7,0,0.,12.0,0.,12.0,0.,12.0,0.,12.0
1979-03-11 04:05:27.040 ,7,0,0.,12.0,0.,12.0,0.,12.0,0.,12.0
1979-03-11 04:05:39.040 ,6,0,0.,12.0,0.,12.0,0.,12.0,0.,12.0
1979-03-11 04:05:51.040 ,6,0,0.,12.0,0.,12.0,0.,12.0,0.,12.0
1979-03-11 04:06:03.040 ,5,0,0.,12.0,0.,12.0,0.,12.0,0.,12.0
1979-03-11 04:06:15.040 ,5,0,0.,12.0,0.,12.0,0.,12.0,0.,12.0
1979-03-11 04:06:27.040 ,4,0,0.,12.0,0.,12.0,0.,12.0,0.,12.0
1979-03-11 04:06:39.040 ,4,0,0.,12.0,0.,12.0,0.,12.0,0.,12.0
1979-03-11 04:06:51.040 ,3,0,0.,12.0,0.,12.0,0.,12.0,0.,12.0
1979-03-11 04:07:03.040 ,3,0,0.,12.0,0.,12.0,0.,12.0,0.,12.0
1979-03-11 04:07:15.040 ,2,0,0.,12.0,0.,12.0,0.,12.0,0.,12.0
1979-03-11 04:07:27.040 ,2,0,0.,12.0,0.,12.0,0.,12.0,0.,12.0
1979-03-11 04:07:39.040 ,1,0,0.,12.0,0.,12.0,0.,12.0,0.,12.0
1979-03-11 04:07:51.040 ,1,0,0.,12.0,0.,12.0,0.,12.0,0.,12.0
1979-03-11 04:08:03.040 ,0,0,0.,12.0,0.,12.0,0.,12.0,0.,12.0
1979-03-11 04:08:15.040 ,0,0,0.,12.0,0.,12.0,0.,12.0,0.,12.0
1979-03-11 04:08:27.040 ,0,0,0.,12.0,0.,12.0,0.,12.0,0.,12.0
1979-03-11 04:08:39.040 ,0,0,0.,12.0,0.,12.0,0.,12.0,0.,12.0
1979-03-11 04:08:51.040 ,1,0,0.,12.0,0.,12.0,0.,12.0,0.,12.0
1979-03-11 04:09:03.040 ,1,0,0.,12.0,0.,12.0,0.,12.0,0.,12.0
1979-03-11 04:09:15.040 ,2,0,0.,12.0,0.,12.0,0.,12.0,0.,12.0
1979-03-11 04:09:27.040 ,2,0,0.,12.0,0.,12.0,0.,12.0,0.,12.0
1979-03-11 04:09:39.040 ,3,0,0.,12.0,0.,12.0,0.,12.0,0.,12.0
1979-03-11 04:09:51.040 ,3,0,0.,12.0,0.,12.0,0.,12.0,0.,12.0
1979-03-11 04:10:03.040 ,4,0,0.,12.0,0.,12.0,0.,12.0,0.,12.0
1979-03-11 04:10:15.040 ,4,0,0.,12.0,0.,12.0,0.,12.0,0.,12.0
1979-03-11 04:10:27.040 ,5,0,0.,12.0,0.,12.0,0.,12.0,0.,12.0
1979-03-11 04:10:39.040 ,5,0,0.,12.0,0.,12.0,0.,12.0,0.,12.0
1979-03-11 04:10:51.040 ,6,0,0.,12.0,0.,12.0,0.,12.0,0.,12.0
1979-03-11 04:11:03.040 ,6,0,0.,12.0,0.,12.0,0.,12.0,0.,12.0
1979-03-11 04:11:15.040 ,7,0,0.,12.0,0.,12.0,0.,12.0,0.,12.0
1979-03-11 04:11:27.040 ,7,0,0.,12.0,0.,12.0,0.,12.0,0.,12.0
1979-03-11 04:11:39.040 ,7,0,0.,12.0,0.,12.0,0.,12.0,0.,12.0
1979-03-11 04:11:51.040 ,7,0,0.,12.0,0.,12.0,0.,12.0,0.,12.0
1979-03-11 04:12:03.040 ,6,0,0.,12.0,0.,12.0,0.,12.0,0.,12.0
1979-03-11 04:12:15.040 ,6,0,0.,12.0,0.,12.0,0.,12.0,0.,12.0
1979-03-11 04:12:27.040 ,5,0,0.,12.0,0.,12.0,0.,12.0,0.,12.0
1979-03-11 04:12:39.040 ,5,0,0.,12.0,0.,12.0,0.,12.0,0.,12.0
1979-03-11 04:12:51.040 ,4,0,0.,12.0,0.,12.0,0.,12.0,0.,12.0
1979-03-11 04:13:03.040 ,4,0,0.,12.0,0.,12.0,0.,12.0,0.,12.0
1979-03-11 04:13:15.040 ,3,0,0.,12.0,0.,12.0,0.,12.0,0.,12.0
1979-03-11 04:13:27.040 ,3,0,0.,12.0,0.,12.0,0.,12.0,0.,12.0
1979-03-11 04:13:39.040 ,2,0,0.,12.0,0.,12.0,0.,12.0,0.,12.0
1979-03-11 04:13:51.040 ,2,0,0.,12.0,0.,12.0,0.,12.0,0.,12.0
1979-03-11 04:14:03.040 ,1,0,0.,12.0,0.,12.0,0.,12.0,0.,12.0
1979-03-11 04:14:15.040 ,1,0,0.,12.0,0.,12.0,0.,12.0,0.,12.0
1979-03-11 04:14:27.040 ,0,0,0.,12.0,0.,12.0,0.,12.0,0.,12.0
1979-03-11 04:14:39.040 ,0,0,0.,12.0,0.,12.0,0.,12.0,0.,12.0
1979-03-11 04:14:51.040 ,0,0,0.,12.0,0.,12.0,0.,12.0,0.,12.0
1979-03-11 04:15:03.040 ,0,0,0.,12.0,0.,12.0,0.,12.0,0.,12.0
1979-03-11 04:15:15.040 ,1,0,0.,12.0,0.,12.0,0.,12.0,0.,12.0
1979-03-11 04:15:27.040 ,1,0,0.,12.0,0.,12.0,0.,12.0,0.,12.0
1979-03-11 04:15:39.040 ,2,0,0.,12.0,0.,12.0,0.,12.0,0.,12.0
1979-03-11 04:15:51.040 ,2,0,0.,12.0,0.,12.0,0.,12.0,0.,12.0
1979-03-11 04:16:03.040 ,3,0,0.,12.0,0.,12.0,0.,12.0,0.,12.0
1979-03-11 04:16:15.040 ,3,0,0.,12.0,0.,12.0,0.,12.0,0.,12.0
1979-03-11 04:16:27.040 ,4,0,0.,12.0,0.,12.0,0.,12.0,0.,12.0
1979-03-11 04:16:39.040 ,4,0,0.,12.0,0.,12.0,0.,12.0,0.,12.0
1979-03-11 04:16:51.040 ,5,0,0.,12.0,0.,12.0,0.,12.0,0.,12.0
1979-03-11 04:17:03.040 ,5,0,0.,12.0,0.,12.0,0.,12.0,0.,12.0
1979-03-11 04:17:15.040 ,6,0,0.,12.0,0.,12.0,0.,12.0,0.,12.0
1979-03-11 04:17:27.040 ,6,0,0.,12.0,0.,12.0,0.,12.0,0.,12.0